Simultaneous Nadir Overpasses (SNOs) Predictions

Prediction of SNOs between AQUA and LANDSAT-8 Satellite Orbit:

Table of predicted SNOs for the next 14.0 days since TLE Epoch: 6/3/2023
Index Date (AQUA) Time (AQUA) Lat,Lon (AQUA) SZA (AQUA ) Date (LANDSAT-8) Time (LANDSAT-8) Lat,Lon (LANDSAT-8) SZA (LANDSAT-8 ) Distance(km) Time Diff (sec)
1 06/08/2023 17:41:11 -71.71, 96.04 131.26 06/08/2023 17:40:05 -71.67, 93.63 131.30 84.09 66
2 06/08/2023 18:30:36 71.67, -96.25 48.70 06/08/2023 18:29:30 71.68, -98.70 48.71 85.93 66
3 06/08/2023 19:20:03 -71.86, 71.06 131.11 06/08/2023 19:18:55 -71.84, 69.20 131.14 64.70 68
4 06/08/2023 20:09:28 71.82,-121.22 48.85 06/08/2023 20:08:21 71.80,-123.23 48.82 69.84 67
5 06/08/2023 20:58:55 -72.02, 46.09 130.96 06/08/2023 20:57:45 -72.01, 44.77 130.98 45.31 70
6 06/08/2023 21:48:20 71.98,-146.20 49.00 06/08/2023 21:47:11 71.97,-147.66 48.98 50.37 69
7 06/08/2023 22:37:46 -72.12, 21.20 130.87 06/08/2023 22:36:36 -72.12, 20.25 130.87 32.57 70
8 06/08/2023 23:27:12 72.13,-171.18 49.15 06/08/2023 23:26:01 72.13,-172.08 49.15 30.93 71
9 06/09/2023 00:16:38 -72.27, -3.78 130.72 06/09/2023 00:15:26 -72.29, -4.17 130.71 13.33 72
10 06/09/2023 01:06:03 72.23, 163.94 49.24 06/09/2023 01:04:52 72.25, 163.40 49.25 18.20 71
11 06/09/2023 01:55:29 -72.37, -28.67 130.62 06/09/2023 01:54:17 -72.40, -28.68 130.60 3.10 72
12 06/09/2023 02:44:55 72.39, 138.95 49.39 06/09/2023 02:43:42 72.42, 138.99 49.42 3.21 73
13 06/09/2023 03:34:19 -72.42, -53.46 130.58 06/09/2023 03:33:10 -72.41, -53.39 130.60 2.75 69
14 06/09/2023 04:23:44 72.38, 114.25 49.38 06/09/2023 04:22:36 72.37, 114.18 49.36 2.98 68
15 06/09/2023 05:13:08 -72.42, -78.15 130.59 06/09/2023 05:12:03 -72.42, -78.10 130.60 1.85 65
16 06/09/2023 06:02:33 72.38, 89.56 49.37 06/09/2023 06:01:29 72.38, 89.47 49.37 3.00 64
17 06/09/2023 06:51:57 -72.41,-102.85 130.61 06/09/2023 06:50:56 -72.42,-102.81 130.59 1.90 61
18 06/09/2023 07:41:23 72.43, 64.77 49.41 06/09/2023 07:40:21 72.44, 64.86 49.42 3.36 62
19 06/09/2023 08:30:46 -72.41,-127.54 130.62 06/09/2023 08:29:49 -72.43,-127.52 130.59 2.84 57
20 06/09/2023 09:20:12 72.42, 40.07 49.40 06/09/2023 09:19:15 72.39, 40.05 49.37 3.49 57
21 06/09/2023 10:09:35 -72.40,-152.24 130.63 06/09/2023 10:08:43 -72.38,-152.32 130.64 3.43 52
22 06/09/2023 10:59:01 72.42, 15.38 49.39 06/09/2023 10:58:08 72.40, 15.35 49.37 2.35 53
23 06/09/2023 11:48:25 -72.45,-177.03 130.59 06/09/2023 11:47:35 -72.44,-176.93 130.59 3.27 50
24 06/09/2023 12:37:50 72.41, -9.31 49.38 06/09/2023 12:37:01 72.40, -9.36 49.37 1.75 49
25 06/09/2023 13:27:14 -72.44, 158.28 130.60 06/09/2023 13:26:28 -72.45, 158.36 130.59 2.90 46
26 06/09/2023 14:16:39 72.41, -34.01 49.37 06/09/2023 14:15:54 72.41, -34.07 49.37 2.16 45
27 06/09/2023 15:06:03 -72.44, 133.58 130.61 06/09/2023 15:05:21 -72.46, 133.65 130.59 3.21 42
28 06/09/2023 15:55:28 72.40, -58.70 49.36 06/09/2023 15:54:47 72.42, -58.78 49.37 3.22 41
29 06/09/2023 16:44:52 -72.43, 108.89 130.62 06/09/2023 16:44:15 -72.41, 108.85 130.64 2.74 37
30 06/09/2023 17:34:18 72.45, -83.50 49.40 06/09/2023 17:33:40 72.43, -83.49 49.37 2.63 38
31 06/09/2023 18:23:41 -72.43, 84.20 130.63 06/09/2023 18:23:08 -72.42, 84.14 130.64 2.19 33
32 06/09/2023 19:13:07 72.44,-108.19 49.39 06/09/2023 19:12:33 72.43,-108.19 49.38 1.28 34
33 06/09/2023 20:02:30 -72.42, 59.50 130.64 06/09/2023 20:02:01 -72.43, 59.43 130.64 2.48 29
34 06/09/2023 20:51:56 72.44,-132.88 49.38 06/09/2023 20:51:26 72.44,-132.90 49.38 0.64 30
35 06/09/2023 21:41:19 -72.42, 34.81 130.65 06/09/2023 21:40:54 -72.43, 34.72 130.63 3.41 25
36 06/09/2023 22:30:45 72.43,-157.58 49.37 06/09/2023 22:30:19 72.45,-157.61 49.38 1.77 26
37 06/09/2023 23:20:09 -72.47, 10.01 130.61 06/09/2023 23:19:47 -72.44, 10.01 130.63 2.82 22
38 06/10/2023 00:09:34 72.43, 177.73 49.36 06/10/2023 00:09:12 72.45, 177.68 49.38 3.13 22
39 06/10/2023 00:58:58 -72.46, -14.68 130.62 06/10/2023 00:58:40 -72.45, -14.70 130.63 1.58 18
40 06/10/2023 01:48:24 72.48, 152.93 49.40 06/10/2023 01:48:05 72.46, 152.97 49.38 2.30 19
41 06/10/2023 02:37:46 -72.46, -39.37 130.63 06/10/2023 02:37:32 -72.45, -39.40 130.63 1.02 14
42 06/10/2023 03:27:12 72.47, 128.24 49.39 06/10/2023 03:26:57 72.47, 128.26 49.38 1.01 15
43 06/10/2023 04:16:35 -72.45, -64.07 130.64 06/10/2023 04:16:25 -72.46, -64.11 130.63 1.88 10
44 06/10/2023 05:06:01 72.47, 103.54 49.38 06/10/2023 05:05:50 72.47, 103.55 49.38 0.81 11
45 06/10/2023 05:55:24 -72.45, -88.76 130.65 06/10/2023 05:55:18 -72.47, -88.82 130.63 3.15 6
46 06/10/2023 06:44:50 72.46, 78.85 49.37 06/10/2023 06:44:43 72.48, 78.85 49.39 2.03 7
47 06/10/2023 07:34:14 -72.49,-113.56 130.61 06/10/2023 07:34:11 -72.47,-113.53 130.63 2.29 3
48 06/10/2023 08:23:39 72.46, 54.16 49.36 06/10/2023 08:23:36 72.49, 54.14 49.39 3.37 3
49 06/10/2023 09:13:03 -72.49,-138.25 130.62 06/10/2023 09:13:04 -72.48,-138.24 130.62 0.91 1
50 06/10/2023 10:02:29 72.51, 29.36 49.40 06/10/2023 10:02:29 72.49, 29.43 49.39 2.65 0
51 06/10/2023 10:51:52 -72.48,-162.95 130.63 06/10/2023 10:51:57 -72.49,-162.95 130.62 0.51 5
52 06/10/2023 11:41:18 72.50, 4.67 49.39 06/10/2023 11:41:22 72.50, 4.72 49.39 1.85 4
53 06/10/2023 12:30:41 -72.48, 172.36 130.64 06/10/2023 12:30:50 -72.50, 172.35 130.62 1.87 9
54 06/10/2023 13:20:07 72.50, -20.03 49.38 06/10/2023 13:20:15 72.51, -19.99 49.39 1.89 8
55 06/10/2023 14:09:30 -72.47, 147.66 130.65 06/10/2023 14:09:43 -72.50, 147.64 130.62 3.24 13
56 06/10/2023 14:58:56 72.49, -44.72 49.37 06/10/2023 14:59:08 72.51, -44.70 49.39 2.72 12
57 06/10/2023 15:48:20 -72.52, 122.87 130.60 06/10/2023 15:48:36 -72.51, 122.93 130.62 2.45 16
58 06/10/2023 16:37:45 72.49, -69.42 49.36 06/10/2023 16:38:02 72.47, -69.50 49.34 3.54 17
59 06/10/2023 17:27:09 -72.52, 98.18 130.61 06/10/2023 17:27:29 -72.52, 98.22 130.62 1.50 20
60 06/10/2023 18:16:34 72.48, -94.11 49.35 06/10/2023 18:16:55 72.47, -94.21 49.34 3.41 21
61 06/10/2023 19:05:58 -72.51, 73.48 130.62 06/10/2023 19:06:22 -72.52, 73.51 130.61 1.48 24
62 06/10/2023 19:55:24 72.53,-118.91 49.39 06/10/2023 19:55:47 72.53,-118.82 49.40 2.95 23
63 06/10/2023 20:44:47 -72.51, 48.79 130.63 06/10/2023 20:45:15 -72.53, 48.80 130.61 2.41 28
64 06/10/2023 21:34:13 72.53,-143.60 49.39 06/10/2023 21:34:40 72.54,-143.53 49.40 2.99 27
65 06/10/2023 22:23:36 -72.50, 24.09 130.64 06/10/2023 22:24:08 -72.54, 24.09 130.61 3.61 32
66 06/10/2023 23:13:02 72.52,-168.30 49.38 06/10/2023 23:13:34 72.49,-168.34 49.35 3.24 32
67 06/11/2023 00:02:26 -72.55, -0.70 130.60 06/11/2023 00:03:01 -72.54, -0.61 130.61 3.17 35
68 06/11/2023 00:51:51 72.52, 167.01 49.37 06/11/2023 00:52:27 72.50, 166.95 49.35 2.46 36
69 06/11/2023 01:41:15 -72.55, -25.40 130.61 06/11/2023 01:41:54 -72.55, -25.32 130.61 2.56 39
70 06/11/2023 02:30:40 72.51, 142.31 49.36 06/11/2023 02:31:20 72.51, 142.24 49.35 2.27 40
71 06/11/2023 03:20:04 -72.54, -50.09 130.62 06/11/2023 03:20:47 -72.56, -50.03 130.61 2.58 43
72 06/11/2023 04:09:29 72.51, 117.62 49.35 06/11/2023 04:10:13 72.51, 117.54 49.35 2.78 44
73 06/11/2023 04:58:53 -72.54, -74.79 130.63 06/11/2023 04:59:40 -72.56, -74.74 130.60 3.21 47
74 06/11/2023 05:48:18 72.50, 92.92 49.34 06/11/2023 05:49:06 72.52, 92.83 49.36 3.71 48
75 06/11/2023 06:37:42 -72.53, -99.48 130.64 06/11/2023 06:38:34 -72.52, -99.55 130.66 2.84 52
76 06/11/2023 07:27:08 72.55, 68.13 49.38 06/11/2023 07:27:59 72.53, 68.12 49.36 2.67 51
77 06/11/2023 08:16:31 -72.53,-124.18 130.65 06/11/2023 08:17:27 -72.52,-124.26 130.65 2.64 56
78 06/11/2023 09:05:57 72.55, 43.43 49.37 06/11/2023 09:06:52 72.53, 43.41 49.36 1.57 55
79 06/11/2023 09:55:20 -72.52,-148.87 130.66 06/11/2023 09:56:20 -72.53,-148.96 130.65 3.06 60
80 06/11/2023 10:44:46 72.54, 18.73 49.36 06/11/2023 10:45:45 72.54, 18.70 49.36 1.12 59
81 06/11/2023 11:34:10 -72.57,-173.67 130.61 06/11/2023 11:35:12 -72.59,-173.57 130.60 3.70 62
82 06/11/2023 12:23:35 72.54, -5.96 49.35 06/11/2023 12:24:38 72.55, -6.01 49.36 1.84 63
83 06/11/2023 13:12:59 -72.57, 161.63 130.62 06/11/2023 13:14:06 -72.54, 161.62 130.65 2.89 67
84 06/11/2023 14:02:24 72.53, -30.66 49.35 06/11/2023 14:03:31 72.55, -30.72 49.37 2.98 67
85 06/11/2023 14:51:48 -72.56, 136.94 130.63 06/11/2023 14:52:59 -72.55, 136.91 130.65 1.90 71
86 06/11/2023 15:41:14 72.58, -55.45 49.39 06/11/2023 15:42:24 72.56, -55.42 49.37 2.65 70
87 06/11/2023 16:30:39 -72.67, 112.04 130.53 06/11/2023 16:31:51 -72.61, 112.30 130.59 10.64 72
88 06/11/2023 17:20:05 72.69, -80.35 49.49 06/11/2023 17:21:16 72.62, -80.03 49.42 12.77 71
89 06/11/2023 18:09:31 -72.82, 87.04 130.38 06/11/2023 18:10:41 -72.77, 87.90 130.43 28.60 70
90 06/11/2023 18:58:56 72.79,-105.25 49.59 06/11/2023 19:00:07 72.73,-104.54 49.53 24.26 71
91 06/11/2023 19:48:23 -72.97, 62.03 130.23 06/11/2023 19:49:32 -72.89, 63.39 130.32 45.43 69
92 06/11/2023 20:37:48 72.94,-130.26 49.74 06/11/2023 20:38:57 72.90,-128.94 49.70 43.42 69
93 06/11/2023 21:27:14 -73.07, 37.13 130.13 06/11/2023 21:28:22 -73.05, 39.00 130.16 60.66 68
94 06/11/2023 22:16:40 73.10,-155.27 49.89 06/11/2023 22:17:47 73.06,-153.33 49.86 62.90 67
95 06/11/2023 23:06:06 -73.23, 12.11 129.98 06/11/2023 23:07:12 -73.22, 14.61 129.99 80.17 66
96 06/11/2023 23:55:32 73.25, 179.71 50.04 06/11/2023 23:56:38 73.18,-177.83 49.97 79.54 66
97 06/12/2023 00:44:58 -73.38, -12.91 129.83 06/12/2023 00:46:03 -73.33, -9.89 129.88 96.58 65
98 06/12/2023 01:34:24 73.40, 154.68 50.19 06/12/2023 01:35:28 73.34, 157.79 50.13 99.00 64



Historial Predications of SNOs between AQUA and LANDSAT-8
